Home   Weather   Stroudsburg   Past weeks

Flag for USA Past Weather in Stroudsburg, Pennsylvania, USA — Yesterday and Last 2 Weeks

Now
57 °F

Mostly cloudy.


Feels Like: 55 °F
Forecast: 46 / 71 °F
Wind: 10 mph from East

Location: Pocono Mountains Municipal Airport

Current Time: Sep 28, 2016 at 1:17:34 PM

Latest Report: Sep 28, 2016 at 12:53 PM


Visibility: 10 mi

Pressure: 30.16 "Hg

Humidity: 87%

Dew Point: 53 °F

Location of StroudsburgLocation

Past Weather in Stroudsburg — Graph

°F

Stroudsburg Temperature Yesterday

Maximum temperature yesterday: 66 °F (at 2:53 PM)
Minimum temperature yesterday: 44 °F (at 11:53 PM)
Average temperature yesterday: 57 °F

High & Low Weather Summary for the Past Weeks

 TemperatureHumidityPressure
High80 °F (Sep 14, 1:53 PM)100% (Sep 19, 3:53 AM)30.37 "Hg (Sep 19, 3:53 AM)
Low37 °F (Sep 26, 1:53 AM)32% (Sep 25, 4:53 PM)29.90 "Hg (Sep 27, 4:53 PM)
Average60 °F76%30.14 "Hg
* Reported Sep 13 11:53 AM — Sep 28 11:53 AM, Stroudsburg, Weather by CustomWeather, © 2016

Note: Actual official high and low records may vary slightly from our data, if they occured in-between our weather recording intervals... More about our weather records

Advertising

Stroudsburg Weather History for the Previous 24 Hours

Scroll right to see more
 ConditionsComfort  
Time TempWeatherWind HumidityBarometerVisibility
11:53 AM
Wed, Sep 28
55 °FLow clouds.14 mph90%30.15 "Hg10 mi
10:53 AM61 °FPassing clouds.16 mph75%30.12 "Hg10 mi
9:53 AM61 °FSunny.12 mph62%30.11 "Hg10 mi
8:53 AM58 °FSunny.10 mph70%30.09 "Hg10 mi
7:53 AM54 °FSunny.7 mph74%30.09 "Hg10 mi
6:53 AM42 °FClear.No wind92%30.08 "Hg10 mi
5:53 AM41 °FClear.No wind96%30.08 "Hg10 mi
4:53 AM43 °FClear.6 mph93%30.06 "Hg10 mi
3:53 AM43 °FClear.3 mph93%30.05 "Hg10 mi
2:53 AM42 °FClear.3 mph96%30.05 "Hg10 mi
1:53 AM42 °FClear.No wind92%30.03 "Hg10 mi
12:53 AM44 °FClear.No wind93%30.03 "Hg10 mi
11:53 PM
Tue, Sep 27
44 °FClear.3 mph93%30.02 "Hg10 mi
10:53 PM46 °FClear.3 mph93%30.01 "Hg10 mi
9:53 PM47 °FClear.No wind90%30.00 "Hg10 mi
8:53 PM49 °FClear.No wind93%29.98 "Hg10 mi
7:53 PM53 °FClear.No wind83%29.97 "Hg10 mi
6:53 PM59 °FClear.3 mph67%29.94 "Hg10 mi
5:53 PM63 °FSunny.10 mph56%29.91 "Hg10 mi
4:53 PM65 °FPassing clouds.6 mph52%29.90 "Hg10 mi
3:53 PM64 °FPassing clouds.10 mph56%29.90 "Hg10 mi
2:53 PM66 °FSunny.3 mph47%29.91 "Hg10 mi
1:53 PM65 °FSunny.3 mph52%29.92 "Hg10 mi
Weather by CustomWeather, © 2016

See weather overviewHow to use our weather pages